RH
84 69 62 68 38 34 28 31 77 48 72 100 72 76 72 59 47 36 29 27 25 19 17 18 19 26 33 36 41 48 39 28 22 21 21 18 17 16 15 16 18 19 19 18 17 16 16 18 19
81 82 100 88 54 50 34 33 46 38 37 99 100 93 70 59 50 46 38 28 24 19 17 20 23 37 42 41 38 61 56 48 40 28 24 22 20 20 18 18 18 18 19 21 21 21 21 19 20
50 71 56 52 55 34 28 25 50 54 48 96 96 91 69 48 35 31 31 27 21 18 17 20 24 34 50 66 72 53 52 52 49 50 42 32 27 25 23 21 21 21 22 22 22 23 22 22 22
57 66 59 50 44 36 23 26 28 65 54 97 100 78 63 56 37 22 21 21 20 18 20 19 19 29 39 56 82 74 52 43 40 41 55 54 42 36 33 27 26 27 26 27 26 25 24 26 26
56 48 32 32 25 22 23 38 39 38 47 64 60 50 45 37 29 22 18 18 24 22 20 27 22 24 35 39 47 77 81 71 58 48 62 83 69 50 44 42 40 35 35 35 34 30 29 30 31
38 40 31 22 18 18 28 35 37 43 49 55 59 61 48 42 32 22 20 24 29 23 33 31 26 24 32 47 48 54 89 99 89 65 64 75 98 91 66 52 50 46 44 45 42 38 36 35 37
37 35 27 20 19 27 43 73 62 70 73 76 59 50 44 41 29 27 25 25 30 26 27 38 41 34 27 39 58 75 79 100 100 74 57 70 79 100 98 75 67 61 57 56 52 49 45 47 38
45 31 24 25 25 33 35 59 64 46 52 52 43 43 39 38 39 31 34 47 53 47 37 51 62 69 64 49 49 66 69 69 78 88 92 80 69 75 100 99 84 70 68 64 57 61 46 33 30
40 41 42 59 58 41 34 31 50 65 64 52 42 51 62 59 38 61 75 72 49 39 39 34 42 43 44 52 58 61 70 75 86 80 77 98 95 78 90 100 98 81 76 71 74 36 33 32 32
80 82 74 87 59 47 37 34 36 54 58 48 54 70 63 54 52 81 51 76 100 100 85 73 80 74 57 49 66 57 48 64 88 93 85 88 90 99 97 98 100 98 92 90 78 43 42 40 42
88 81 79 68 61 50 44 41 47 56 48 45 55 64 57 50 36 51 53 50 46 85 96 86 79 67 56 46 49 57 47 46 52 75 100 96 92 88 94 98 97 89 93 95 84 72 66 55 49
64 81 79 65 57 55 50 52 49 53 72 98 65 50 46 48 45 45 52 56 75 99 89 85 67 60 43 38 47 48 41 48 47 42 61 83 100 100 94 86 100 100 100 100 100 100 77 60 69
63 60 76 71 62 55 48 46 51 67 70 67 55 47 44 49 68 88 89 83 73 48 51 49 44 32 33 39 38 45 42 35 45 39 47 47 68 93 100 97 97 100 100 100 100 88 93 74 78
57 60 72 73 69 62 59 52 44 41 41 47 50 54 56 87 83 72 53 49 49 57 61 47 43 44 48 46 44 46 48 50 50 45 39 40 42 53 74 98 99 100 100 100 89 82 100 100 100
54 49 56 54 76 74 64 56 50 56 49 53 78 87 71 82 100 100 100 83 69 58 49 44 42 45 43 48 47 40 36 40 42 56 61 42 38 38 49 69 88 100 90 80 80 77 82 82 99
77 62 62 86 69 58 51 54 54 49 56 95 100 100 100 100 100 100 88 76 73 72 67 61 59 54 51 46 40 37 35 49 49 64 49 49 45 58 56 61 73 95 100 94 85 72 58 55 96
93 92 90 78 72 63 52 54 58 51 55 81 98 100 100 98 100 100 100 93 82 74 69 65 57 46 39 34 34 34 38 43 46 43 53 46 38 39 63 61 47 89 100 98 79 72 58 62 100
91 80 77 69 59 52 54 56 55 54 58 78 90 99 100 100 100 100 100 97 85 84 79 72 57 48 41 39 38 34 27 36 45 50 45 49 42 33 40 52 64 45 80 100 79 75 76 100 100
68 75 70 63 59 57 65 58 62 62 74 100 100 100 100 100 100 100 100 100 97 91 72 65 56 51 48 46 38 30 25 23 32 44 48 49 52 41 34 39 67 65 48 60 73 40 50 72 80
78 72 72 69 63 64 73 77 81 99 100 100 100 100 100 100 100 92 85 87 79 78 66 56 51 48 40 37 37 34 27 21 17 22 34 38 37 47 43 33 33 69 79 60 70 77 53 48 58
75 84 86 69 77 71 71 67 76 100 99 99 100 100 100 100 100 100 91 81 67 55 51 48 40 36 34 29 26 21 18 16 16 15 18 24 31 33 40 38 31 30 79 94 86 80 78 66 48
93 87 87 87 81 82 85 81 82 86 90 97 91 84 79 79 83 79 66 58 52 51 51 44 34 25 22 20 15 13 15 15 14 13 12 13 17 20 25 36 39 38 41 69 94 83 85 78 65
100 100 96 91 98 98 98 85 70 74 83 88 100 95 90 77 66 62 60 48 44 40 34 32 24 18 16 14 13 15 16 17 14 14 13 11 13 14 17 23 34 56 82 62 64 72 71 94 72
99 100 100 99 89 83 81 77 72 73 76 90 88 76 67 58 53 53 47 38 31 29 28 23 17 14 13 12 15 17 17 19 15 18 16 15 14 12 14 17 26 42 84 100 80 69 68 70 81
100 99 92 80 77 73 77 69 84 91 84 77 71 60 53 53 48 38 30 24 23 23 20 18 17 16 18 16 16 16 19 28 34 22 24 21 16 14 13 17 22 29 52 100 99 95 85 76 67
97 83 86 75 69 70 72 78 84 84 78 73 64 58 48 39 34 29 24 22 18 16 18 20 19 18 20 18 16 17 24 28 39 39 39 20 20 18 17 15 19 22 34 80 100 100 97 93 86
98 96 81 76 70 71 74 70 74 79 68 53 47 38 29 26 25 27 25 19 19 18 21 23 26 23 22 24 19 22 25 46 58 61 43 45 37 25 22 17 16 19 24 38 85 100 100 99 98
95 86 84 91 85 73 68 60 63 56 53 46 34 31 27 26 25 25 23 22 23 23 22 26 30 40 30 42 33 45 58 51 51 60 66 66 46 32 25 21 18 18 22 27 43 82 100 100 99
76 71 78 86 80 64 49 49 58 51 43 33 31 29 31 30 25 25 27 26 28 25 25 25 31 41 45 58 68 60 74 77 90 62 77 76 66 56 35 34 28 22 18 20 25 35 60 89 99
89 87 74 72 73 71 52 43 47 39 34 36 34 34 33 31 38 38 35 29 27 27 25 20 29 42 55 63 78 84 79 69 72 64 71 80 56 73 67 52 47 36 24 20 21 26 31 43 65
Wind_Speed
37 38 37 38 38 36 36 38 33 35 35 37 37 33 34 38 37 38 37 38 39 40 41 43 41 39 39 36 31 33 34 35 35 36 38 38 37 38 36 35 34 34 34 32 31 30 28 28 29
37 37 39 40 39 40 38 39 42 43 43 36 34 35 37 40 41 42 43 41 44 46 44 42 40 40 40 38 37 35 34 34 34 35 36 36 34 34 34 34 33 31 29 27 26 25 25 26 27
38 38 36 38 40 40 41 42 41 41 38 36 39 41 40 42 45 45 46 46 46 45 42 39 39 40 40 39 37 38 36 35 36 36 37 36 34 32 31 30 28 30 29 29 29 28 27 26 27
40 42 42 43 43 43 45 45 44 38 37 41 42 45 51 53 51 45 45 46 45 45 45 43 41 41 41 40 39 39 40 40 40 40 39 39 37 35 34 32 30 31 33 33 32 29 29 30 30
42 42 44 46 46 45 47 42 44 48 42 43 47 52 52 50 49 50 50 49 45 46 47 43 42 42 41 41 42 43 43 42 41 41 40 40 41 41 38 35 33 34 35 33 32 32 33 34 33
47 48 49 52 49 48 52 45 45 48 45 46 53 55 54 53 49 49 46 48 50 48 46 45 43 42 40 41 42 43 45 46 44 42 42 42 41 43 42 39 37 36 35 34 34 35 36 36 36
53 52 56 52 48 50 52 51 49 51 48 51 53 53 53 52 46 46 49 49 53 50 44 43 40 40 41 40 41 41 43 45 47 46 44 43 42 43 45 44 40 37 38 35 34 35 36 36 35
55 56 51 55 54 51 50 51 55 59 60 51 48 50 49 47 49 52 51 50 50 48 45 41 39 36 38 40 41 41 41 44 46 46 46 45 44 44 44 45 41 37 38 36 34 33 32 32 33
59 59 58 57 53 49 50 50 57 63 61 53 46 46 47 49 48 46 47 47 45 47 48 44 43 42 39 42 43 43 44 42 43 46 47 45 45 45 44 43 40 39 38 39 33 29 28 32 33
51 51 50 51 50 50 51 52 54 58 55 52 44 47 51 51 46 46 46 43 46 46 47 46 48 46 49 54 54 51 48 47 43 44 46 47 47 45 45 44 43 42 39 36 34 33 34 35 35
54 50 47 52 55 56 56 55 56 59 54 49 47 51 50 48 45 45 51 54 57 56 55 53 54 54 55 56 52 53 52 52 52 48 44 46 47 48 47 45 45 44 42 42 39 37 39 37 33
60 58 61 63 58 57 55 56 55 57 53 52 53 52 52 47 47 48 55 56 58 62 60 56 54 54 57 58 58 59 61 59 59 59 55 49 47 48 49 49 48 50 47 45 45 40 40 39 34
61 64 63 58 58 56 55 54 52 54 56 59 58 57 54 50 50 53 61 64 65 62 61 63 63 63 64 65 68 65 67 70 65 63 63 61 56 50 50 51 52 49 49 46 44 42 40 38 38
61 63 61 62 61 56 53 54 54 55 58 61 61 62 55 54 58 61 60 62 64 65 66 66 67 67 68 71 74 76 77 77 75 73 69 67 66 61 52 53 52 49 49 50 47 41 39 39 36
63 64 65 65 62 60 62 63 59 56 57 59 61 63 62 60 63 67 69 70 70 71 71 73 75 75 75 75 78 81 81 82 81 79 76 70 70 69 65 56 55 55 56 55 49 44 39 37 32
70 68 66 62 64 63 60 59 62 60 57 59 62 67 72 73 74 75 75 75 74 75 77 78 80 81 83 82 83 84 84 80 79 84 80 73 70 70 74 64 55 59 60 58 55 50 48 42 34
68 64 63 66 68 69 66 59 63 62 57 59 64 69 72 76 77 76 77 78 79 81 82 83 85 86 87 87 88 87 83 82 80 80 84 81 74 72 73 76 70 63 63 63 57 53 50 44 35
68 66 63 63 66 66 63 62 62 62 60 64 68 68 70 73 75 76 79 81 83 84 85 86 89 92 94 95 92 87 84 82 82 82 84 86 84 78 74 78 80 74 72 65 57 59 57 50 38
73 67 64 68 67 63 67 67 67 66 64 67 69 73 73 74 78 80 81 84 84 87 91 93 95 95 96 93 93 90 86 83 84 85 86 88 89 85 82 80 86 84 81 80 75 65 52 41 44
72 70 74 72 73 66 64 65 64 65 69 74 77 80 83 85 88 89 89 89 92 93 97 99 100 99 97 94 95 96 96 93 89 90 90 90 91 92 89 85 85 90 89 86 83 79 70 61 51
79 77 77 74 72 71 67 69 66 69 75 80 84 87 89 90 90 90 91 93 95 96 98 100 99 98 98 98 96 96 96 94 94 92 92 93 95 97 96 93 89 89 94 92 89 86 84 80 80
82 86 83 78 76 74 73 75 73 73 76 82 87 89 90 91 92 93 96 97 98 97 99 100 99 100 100 100 91 89 90 90 91 92 90 91 96 98 100 99 97 93 93 96 91 87 88 86 84
86 86 86 83 79 76 77 81 78 80 81 83 87 90 92 94 97 98 99 99 98 98 99 101 100 100 95 91 83 80 79 78 82 81 83 83 88 95 98 100 99 100 98 97 96 90 86 87 88
88 87 86 86 86 84 85 87 77 80 84 86 89 92 97 100 100 100 100 101 103 102 102 102 95 90 82 78 70 69 67 66 68 68 72 74 81 86 94 97 99 102 102 99 96 93 90 89 89
91 92 91 90 90 90 89 88 82 84 88 93 96 100 102 105 105 104 104 102 98 95 94 86 87 77 66 62 61 59 58 58 60 59 62 70 73 80 86 93 96 98 103 101 97 95 90 89 87
95 97 97 97 95 93 89 85 87 91 96 100 103 104 106 106 104 101 99 92 86 81 77 74 75 64 55 51 53 49 51 54 57 56 64 64 67 74 79 83 91 97 99 102 99 96 94 87 87
97 99 99 99 98 96 94 93 93 97 103 104 104 104 103 98 94 90 85 78 74 67 65 63 60 56 48 44 46 45 46 48 52 57 58 59 63 67 71 77 82 90 94 98 101 98 93 93 91
101 101 101 103 103 102 101 98 99 103 107 107 102 98 92 88 86 81 76 70 68 61 56 55 54 53 47 43 44 43 45 47 50 53 55 59 62 65 70 72 75 81 88 93 100 99 99 96 97
104 103 104 106 109 110 108 99 102 104 104 98 93 89 85 81 79 75 72 66 61 54 50 51 50 51 50 42 44 47 44 50 53 52 51 54 60 63 68 67 69 72 79 87 92 97 100 99 102
108 109 109 110 112 113 113 100 101 97 89 87 83 79 77 73 71 70 65 60 56 50 48 47 46 49 50 44 43 49 49 48 51 51 51 55 59 59 55 59 64 69 72 74 79 84 95 99 98
Wind_Direction
282 275 280 284 286 287 292 294 284 296 290 276 280 280 284 288 287 289 292 291 289 294 288 283 278 273 273 271 269 273 274 276 277 278 279 280 281 282 281 278 278 279 281 282 284 286 288 293 295
280 279 271 281 285 288 290 290 290 287 291 272 273 285 289 283 283 284 287 283 288 294 293 286 283 272 269 269 265 262 267 269 270 272 274 278 279 281 279 277 276 275 277 280 284 286 291 295 298
276 280 278 281 292 294 295 295 289 284 287 276 276 289 284 285 293 290 287 285 292 289 283 279 277 272 268 268 267 265 262 266 269 270 271 272 275 274 274 275 275 277 279 282 285 286 290 296 302
279 279 280 282 287 293 299 293 292 285 282 281 278 286 287 290 289 286 285 284 286 284 279 276 274 271 269 265 264 261 264 266 269 270 270 269 268 268 269 272 274 277 281 285 288 288 290 293 301
278 278 286 287 289 292 302 289 282 287 283 275 275 285 288 286 283 285 287 286 280 278 276 271 272 274 271 269 266 263 263 264 266 267 267 267 267 266 267 267 270 272 278 281 285 285 289 295 299
281 283 288 286 290 294 300 294 285 284 285 279 284 286 287 285 282 286 287 278 273 274 270 271 272 269 268 268 266 266 265 265 264 264 265 266 265 267 266 266 267 268 271 276 283 284 288 292 299
284 286 289 291 293 297 298 292 284 285 281 281 283 282 285 285 285 288 286 284 275 273 270 272 272 270 265 265 264 263 264 264 266 266 266 265 265 267 268 268 267 265 268 274 278 282 287 290 294
285 285 290 291 289 292 292 287 287 289 286 287 280 281 281 282 288 287 278 272 273 272 267 270 271 273 269 265 262 262 266 266 261 264 267 268 266 265 267 268 268 265 268 271 273 283 285 290 291
287 289 291 290 291 292 291 294 287 285 283 282 282 276 277 283 283 280 274 272 276 278 273 268 266 268 272 273 271 268 268 268 267 263 263 265 267 266 264 264 263 265 268 270 272 279 285 287 293
285 291 290 287 293 294 296 295 292 286 282 281 274 271 276 280 269 268 264 264 278 280 278 276 276 271 277 282 273 271 266 269 268 265 264 264 265 265 264 262 261 261 266 266 264 274 281 289 295
289 289 286 290 294 296 295 293 288 283 282 281 278 277 278 271 261 260 262 264 267 278 279 277 280 283 283 283 276 271 272 269 268 266 265 264 266 265 264 264 262 261 261 263 261 270 277 284 289
284 290 292 293 295 293 291 286 286 283 280 272 273 276 277 269 262 262 262 262 268 275 277 277 277 278 279 278 276 277 277 270 267 266 264 262 262 264 264 264 262 261 257 259 257 272 275 278 277
286 289 290 291 292 291 289 286 287 284 279 279 281 279 276 272 261 260 265 266 268 270 273 275 275 276 278 279 282 279 277 276 271 265 266 264 260 258 261 262 263 263 260 258 263 269 272 274 278
287 289 287 288 288 286 285 287 286 286 286 285 285 283 278 266 267 269 267 265 265 268 270 270 271 273 276 280 282 282 283 280 274 269 265 262 263 259 258 258 260 256 258 256 259 265 266 270 275
285 287 287 289 288 286 286 287 284 282 283 283 280 279 280 277 274 272 271 272 271 269 267 265 266 270 270 274 278 281 283 281 278 271 267 264 260 260 258 256 255 259 256 256 257 260 260 264 268
284 286 286 288 286 287 288 289 284 282 280 276 276 273 273 274 275 273 271 271 272 273 274 276 275 274 276 278 281 282 281 272 271 272 267 263 258 257 255 251 250 253 251 254 256 257 259 259 262
285 284 283 285 284 286 289 287 284 282 280 274 271 269 272 274 273 274 275 276 276 277 278 278 279 279 282 281 280 281 278 273 267 266 266 263 255 254 251 249 245 245 248 252 252 255 251 252 256
284 282 283 283 286 289 288 287 285 284 283 275 273 269 271 273 276 277 279 279 280 280 280 281 281 282 283 283 282 279 276 269 266 263 264 263 260 252 250 247 245 241 243 245 246 249 250 250 245
284 282 283 286 287 289 286 286 284 285 279 272 269 269 272 274 277 280 280 279 280 279 280 280 281 281 281 282 281 280 275 269 264 260 259 259 259 256 248 246 245 241 241 243 241 243 240 237 239
282 283 285 289 289 287 284 282 283 281 275 272 273 270 272 275 279 280 279 278 280 280 281 281 282 282 281 281 280 279 275 271 264 258 256 254 254 253 251 247 244 243 240 241 242 240 239 241 233
284 285 286 287 284 284 283 282 281 278 275 275 275 276 277 278 279 279 279 279 281 283 283 283 283 284 282 281 280 277 273 269 264 259 254 252 251 250 250 250 247 243 241 239 240 241 243 241 243
283 285 286 283 283 283 284 283 282 279 276 275 274 275 277 278 278 278 279 281 282 283 285 287 287 286 285 283 280 275 271 267 263 259 255 252 248 248 248 248 248 245 243 240 239 241 240 241 240
283 284 284 283 284 283 283 283 284 284 282 281 280 280 280 281 282 282 283 285 286 286 286 287 287 285 284 282 279 273 268 263 261 259 255 252 248 245 244 245 246 246 243 241 238 239 240 240 239
282 282 282 283 283 283 284 285 287 286 284 281 281 282 282 284 285 285 285 286 287 289 288 287 286 283 282 280 276 271 266 262 260 255 255 251 248 243 241 241 242 244 244 241 241 238 239 240 242
282 281 282 283 284 285 285 285 286 286 286 285 285 286 286 286 286 286 286 287 286 288 287 287 284 285 282 278 271 262 259 256 256 254 253 250 248 245 241 239 240 241 243 243 242 241 241 241 242
282 282 284 283 284 284 284 284 286 287 286 288 290 289 288 288 288 288 287 287 288 286 285 283 284 283 281 275 267 257 252 249 251 253 252 254 250 248 247 243 240 240 241 243 243 243 244 244 246
284 285 284 285 285 285 286 287 288 289 289 288 287 287 288 288 287 288 288 290 288 286 282 281 281 280 278 272 269 259 247 242 247 248 253 253 251 249 249 247 242 240 241 243 244 245 245 247 248
281 283 285 286 286 286 286 287 291 290 289 289 289 288 287 287 287 288 288 288 286 284 282 280 276 274 272 273 273 256 249 250 250 249 250 250 251 251 250 249 246 241 241 242 243 244 247 248 249
280 282 284 286 287 287 288 291 290 290 289 288 288 287 288 288 290 288 288 288 285 283 279 275 270 269 269 273 270 255 244 243 249 252 247 248 251 252 252 251 250 248 243 242 244 246 247 249 250
282 284 285 286 287 289 290 293 290 289 288 287 287 287 287 287 286 285 288 287 283 281 276 268 264 266 267 270 262 247 245 244 245 247 245 249 254 256 258 255 253 252 251 246 244 244 245 248 252